2015-05-06 00:03:55 r, 17.38m,0000000010Hz,0000046101c,0000000.100s, 032.2C,00002195
2015-05-06 00:13:55 r, 17.90m,0000000006Hz,0000074969c,0000000.163s, 031.9C,00002195
2015-05-06 00:23:55 r, 17.85m,0000000006Hz,0000071922c,0000000.156s, 031.5C,00002195
2015-05-06 00:33:55 r, 17.79m,0000000007Hz,0000068096c,0000000.148s, 031.2C,00002195
2015-05-06 00:43:55 r, 17.75m,0000000007Hz,0000066039c,0000000.143s, 031.2C,00002195
2015-05-06 00:53:55 r, 17.74m,0000000007Hz,0000065136c,0000000.141s, 030.9C,00002195
2015-05-06 01:03:55 r, 17.73m,0000000007Hz,0000064395c,0000000.140s, 030.6C,00002195
2015-05-06 01:13:55 r, 17.72m,0000000008Hz,0000063687c,0000000.138s, 030.6C,00002195
2015-05-06 01:23:55 r, 17.73m,0000000007Hz,0000064202c,0000000.139s, 030.2C,00002195
2015-05-06 01:33:55 r, 17.71m,0000000007Hz,0000063316c,0000000.137s, 030.2C,00002195
2015-05-06 01:43:55 r, 17.69m,0000000008Hz,0000062331c,0000000.135s, 029.9C,00002195
2015-05-06 01:53:55 r, 17.69m,0000000008Hz,0000062314c,0000000.135s, 029.9C,00002195
2015-05-06 02:03:55 r, 17.70m,0000000007Hz,0000062729c,0000000.136s, 029.9C,00002195
2015-05-06 02:13:55 r, 17.71m,0000000007Hz,0000062981c,0000000.137s, 029.9C,00002195
2015-05-06 02:23:55 r, 17.71m,0000000007Hz,0000063327c,0000000.137s, 029.6C,00002195
2015-05-06 02:33:55 r, 17.72m,0000000007Hz,0000063706c,0000000.138s, 029.6C,00002195
2015-05-06 02:43:55 r, 17.71m,0000000007Hz,0000063408c,0000000.138s, 029.6C,00002195
2015-05-06 02:53:55 r, 17.71m,0000000008Hz,0000063349c,0000000.137s, 029.6C,00002195
2015-05-06 03:03:55 r, 17.72m,0000000008Hz,0000063651c,0000000.138s, 029.3C,00002195
2015-05-06 03:13:55 r, 17.73m,0000000007Hz,0000064080c,0000000.139s, 029.3C,00002195
2015-05-06 03:23:55 r, 17.74m,0000000007Hz,0000065183c,0000000.141s, 029.3C,00002195
2015-05-06 03:33:55 r, 17.75m,0000000007Hz,0000065312c,0000000.142s, 029.3C,00002195
2015-05-06 03:43:55 r, 17.75m,0000000007Hz,0000065378c,0000000.142s, 029.3C,00002195
2015-05-06 03:53:55 r, 17.76m,0000000007Hz,0000066227c,0000000.144s, 029.3C,00002195
2015-05-06 04:03:55 r, 17.77m,0000000007Hz,0000066969c,0000000.145s, 029.0C,00002195
2015-05-06 04:13:55 r, 17.74m,0000000007Hz,0000064550c,0000000.140s, 029.0C,00002195
2015-05-06 04:23:55 r, 17.72m,0000000007Hz,0000063860c,0000000.139s, 028.6C,00002195
2015-05-06 04:33:55 r, 17.59m,0000000008Hz,0000056492c,0000000.123s, 028.6C,00002195
2015-05-06 04:43:55 r, 17.31m,0000000011Hz,0000043638c,0000000.095s, 028.6C,00002195
2015-05-06 04:53:55 r, 16.78m,0000000017Hz,0000026753c,0000000.058s, 028.3C,00002195
2015-05-06 05:03:55 r, 15.75m,0000000044Hz,0000010417c,0000000.023s, 028.3C,00002195
2015-05-06 05:13:55 r, 14.21m,0000000183Hz,0000000000c,0000000.000s, 028.3C,00002195
2015-05-06 05:23:55 r, 12.49m,0000000902Hz,0000000000c,0000000.000s, 028.3C,00002195
2015-05-06 05:33:55 r, 10.81m,0000004233Hz,0000000000c,0000000.000s, 028.3C,00002195
2015-05-06 05:43:55 r, 09.24m,0000017989Hz,0000000000c,0000000.000s, 028.3C,00002195
2015-05-06 05:53:55 r, 08.00m,0000056100Hz,0000000000c,0000000.000s, 028.0C,00002195
2015-05-06 06:03:55 r, 07.14m,0000124262Hz,0000000000c,0000000.000s, 028.3C,00002195
2015-05-06 06:13:55 r, 06.46m,0000233335Hz,0000000000c,0000000.000s, 028.3C,00002195
2015-05-06 06:23:55 r, 06.04m,0000340311Hz,0000000000c,0000000.000s, 028.3C,00002195
2015-05-06 06:33:55 r, 00.00m,0000469382Hz,0000000000c,0000000.000s, 028.3C,00002195
2015-05-06 06:43:55 r, 00.00m,0000563664Hz,0000000000c,0000000.000s, 028.3C,00002195
2015-05-06 06:53:55 r, 00.00m,0000563614Hz,0000000000c,0000000.000s, 028.3C,00002195
2015-05-06 07:03:55 r, 00.00m,0000563626Hz,0000000000c,0000000.000s, 028.6C,00002195
2015-05-06 07:13:55 r, 00.00m,0000563699Hz,0000000000c,0000000.000s, 028.6C,00002195
2015-05-06 07:23:55 r, 00.00m,0000563640Hz,0000000000c,0000000.000s, 029.0C,00002195
2015-05-06 07:33:55 r, 00.00m,0000563708Hz,0000000000c,0000000.000s, 029.3C,00002195
2015-05-06 07:43:55 r, 00.00m,0000563766Hz,0000000000c,0000000.000s, 029.9C,00002195
2015-05-06 07:53:55 r, 00.00m,0000563868Hz,0000000000c,0000000.000s, 030.2C,00002195
2015-05-06 08:03:55 r, 00.00m,0000563918Hz,0000000000c,0000000.000s, 030.9C,00002195
2015-05-06 08:13:55 r, 00.00m,0000564018Hz,0000000000c,0000000.000s, 031.5C,00002195
2015-05-06 08:23:55 r, 00.00m,0000564093Hz,0000000000c,0000000.000s, 032.2C,00002195
2015-05-06 08:33:55 r, 00.00m,0000564152Hz,0000000000c,0000000.000s, 032.8C,00002195
2015-05-06 08:43:55 r, 00.00m,0000564161Hz,0000000000c,0000000.000s, 033.5C,00002195
2015-05-06 08:53:55 r, 00.00m,0000564343Hz,0000000000c,0000000.000s, 034.8C,00002195
2015-05-06 09:03:55 r, 00.00m,0000564585Hz,0000000000c,0000000.000s, 036.7C,00002195
2015-05-06 09:13:55 r, 00.00m,0000564696Hz,0000000000c,0000000.000s, 037.3C,00002195
2015-05-06 09:23:55 r, 00.00m,0000564776Hz,0000000000c,0000000.000s, 038.3C,00002195
2015-05-06 09:33:55 r, 00.00m,0000564891Hz,0000000000c,0000000.000s, 039.6C,00002195
2015-05-06 09:43:55 r, 00.00m,0000564857Hz,0000000000c,0000000.000s, 040.6C,00002195
2015-05-06 09:53:55 r, 00.00m,0000564879Hz,0000000000c,0000000.000s, 040.2C,00002195
2015-05-06 10:03:55 r, 00.00m,0000565026Hz,0000000000c,0000000.000s, 041.2C,00002195
2015-05-06 10:13:56 r, 00.00m,0000565031Hz,0000000000c,0000000.000s, 041.5C,00002195
2015-05-06 10:23:56 r, 00.00m,0000565184Hz,0000000000c,0000000.000s, 042.5C,00002195
2015-05-06 10:33:56 r, 00.00m,0000565099Hz,0000000000c,0000000.000s, 042.2C,00002195
2015-05-06 10:43:56 r, 00.00m,0000565045Hz,0000000000c,0000000.000s, 042.2C,00002195
2015-05-06 10:53:56 r, 00.00m,0000565224Hz,0000000000c,0000000.000s, 043.5C,00002195
2015-05-06 11:03:56 r, 00.00m,0000565030Hz,0000000000c,0000000.000s, 041.9C,00002195
2015-05-06 11:13:56 r, 00.00m,0000564928Hz,0000000000c,0000000.000s, 040.6C,00002195
2015-05-06 11:23:56 r, 00.00m,0000564797Hz,0000000000c,0000000.000s, 039.6C,00002195
2015-05-06 11:33:56 r, 00.00m,0000564922Hz,0000000000c,0000000.000s, 040.2C,00002195
2015-05-06 11:43:56 r, 00.00m,0000564886Hz,0000000000c,0000000.000s, 039.9C,00002195
2015-05-06 11:53:56 r, 00.00m,0000564878Hz,0000000000c,0000000.000s, 039.9C,00002195
2015-05-06 12:03:56 r, 00.00m,0000564897Hz,0000000000c,0000000.000s, 040.2C,00002195
2015-05-06 12:13:56 r, 00.00m,0000565061Hz,0000000000c,0000000.000s, 041.5C,00002195
2015-05-06 12:23:56 r, 00.00m,0000565082Hz,0000000000c,0000000.000s, 042.5C,00002195
2015-05-06 12:33:56 r, 00.00m,0000565174Hz,0000000000c,0000000.000s, 043.1C,00002195
2015-05-06 12:43:56 r, 00.00m,0000565243Hz,0000000000c,0000000.000s, 043.1C,00002195
2015-05-06 12:53:56 r, 00.00m,0000565173Hz,0000000000c,0000000.000s, 042.5C,00002195
2015-05-06 13:03:56 r, 00.00m,0000565087Hz,0000000000c,0000000.000s, 042.8C,00002195
2015-05-06 13:13:56 r, 00.00m,0000565163Hz,0000000000c,0000000.000s, 042.8C,00002195
2015-05-06 13:23:56 r, 00.00m,0000565065Hz,0000000000c,0000000.000s, 042.8C,00002195
2015-05-06 13:33:56 r, 00.00m,0000565055Hz,0000000000c,0000000.000s, 042.5C,00002195
2015-05-06 13:43:56 r, 00.00m,0000565021Hz,0000000000c,0000000.000s, 042.2C,00002195
2015-05-06 13:53:56 r, 00.00m,0000565129Hz,0000000000c,0000000.000s, 042.2C,00002195
2015-05-06 14:03:56 r, 00.00m,0000565028Hz,0000000000c,0000000.000s, 041.5C,00002195
2015-05-06 14:13:56 r, 00.00m,0000564826Hz,0000000000c,0000000.000s, 040.6C,00002195
2015-05-06 14:23:56 r, 00.00m,0000564762Hz,0000000000c,0000000.000s, 039.6C,00002195
2015-05-06 14:33:56 r, 00.00m,0000564709Hz,0000000000c,0000000.000s, 038.6C,00002195
2015-05-06 14:43:56 r, 00.00m,0000564665Hz,0000000000c,0000000.000s, 037.7C,00002195
2015-05-06 14:53:56 r, 00.00m,0000564595Hz,0000000000c,0000000.000s, 037.0C,00002195
2015-05-06 15:03:56 r, 00.00m,0000564562Hz,0000000000c,0000000.000s, 036.4C,00002195
2015-05-06 15:13:56 r, 00.00m,0000564571Hz,0000000000c,0000000.000s, 036.4C,00002195
2015-05-06 15:23:56 r, 00.00m,0000564580Hz,0000000000c,0000000.000s, 036.4C,00002195
2015-05-06 15:33:56 r, 00.00m,0000564645Hz,0000000000c,0000000.000s, 036.4C,00002195
2015-05-06 15:43:56 r, 00.00m,0000564645Hz,0000000000c,0000000.000s, 036.4C,00002195
2015-05-06 15:53:56 r, 00.00m,0000564688Hz,0000000000c,0000000.000s, 036.0C,00002195
2015-05-06 16:03:56 r, 00.00m,0000564477Hz,0000000000c,0000000.000s, 035.1C,00002195
2015-05-06 16:13:56 r, 00.00m,0000564445Hz,0000000000c,0000000.000s, 034.8C,00002195
2015-05-06 16:23:56 r, 00.00m,0000564542Hz,0000000000c,0000000.000s, 034.8C,00002195
2015-05-06 16:33:56 r, 00.00m,0000564493Hz,0000000000c,0000000.000s, 034.8C,00002195
2015-05-06 16:43:56 r, 00.00m,0000564554Hz,0000000000c,0000000.000s, 035.1C,00002195
2015-05-06 16:53:56 r, 00.00m,0000564432Hz,0000000000c,0000000.000s, 035.1C,00002195
2015-05-06 17:03:56 r, 00.00m,0000564513Hz,0000000000c,0000000.000s, 034.8C,00002195
2015-05-06 17:13:56 r, 00.00m,0000564483Hz,0000000000c,0000000.000s, 034.8C,00002195
2015-05-06 17:23:56 r, 00.00m,0000564494Hz,0000000000c,0000000.000s, 034.4C,00002195
2015-05-06 17:33:56 r, 00.00m,0000564403Hz,0000000000c,0000000.000s, 034.1C,00002195
2015-05-06 17:43:56 r, 00.00m,0000564336Hz,0000000000c,0000000.000s, 033.8C,00002195
2015-05-06 17:53:56 r, 00.00m,0000564397Hz,0000000000c,0000000.000s, 033.8C,00002195
2015-05-06 18:03:56 r, 00.00m,0000564377Hz,0000000000c,0000000.000s, 033.1C,00002195
2015-05-06 18:13:56 r, 00.00m,0000564310Hz,0000000000c,0000000.000s, 032.8C,00002195
2015-05-06 18:23:56 r, 00.00m,0000564321Hz,0000000000c,0000000.000s, 032.8C,00002195
2015-05-06 18:33:56 r, 00.00m,0000564295Hz,0000000000c,0000000.000s, 032.5C,00002195
2015-05-06 18:43:56 r, 00.00m,0000564350Hz,0000000000c,0000000.000s, 032.8C,00002195
2015-05-06 18:53:56 r, 00.00m,0000564356Hz,0000000000c,0000000.000s, 033.1C,00002195
2015-05-06 19:03:56 r, 00.00m,0000564439Hz,0000000000c,0000000.000s, 032.8C,00002195
2015-05-06 19:13:56 r, 00.00m,0000564379Hz,0000000000c,0000000.000s, 033.1C,00002195
2015-05-06 19:23:56 r, 00.00m,0000564470Hz,0000000000c,0000000.000s, 033.1C,00002195
2015-05-06 19:33:56 r, 00.00m,0000564414Hz,0000000000c,0000000.000s, 033.1C,00002195
2015-05-06 19:43:56 r, 00.00m,0000564489Hz,0000000000c,0000000.000s, 033.1C,00002195
2015-05-06 19:53:56 r, 00.00m,0000564398Hz,0000000000c,0000000.000s, 033.1C,00002195
2015-05-06 20:03:56 r, 00.00m,0000564447Hz,0000000000c,0000000.000s, 032.8C,00002195
2015-05-06 20:13:56 r, 00.00m,0000562437Hz,0000000000c,0000000.000s, 032.8C,00002195
2015-05-06 20:23:56 r, 00.00m,0000424682Hz,0000000000c,0000000.000s, 032.8C,00002195
2015-05-06 20:33:56 r, 06.35m,0000257389Hz,0000000000c,0000000.000s, 032.5C,00002195
2015-05-06 20:43:56 r, 07.12m,0000126016Hz,0000000000c,0000000.000s, 032.5C,00002195
2015-05-06 20:53:56 r, 08.11m,0000050434Hz,0000000000c,0000000.000s, 032.2C,00002195
2015-05-06 21:03:56 r, 09.01m,0000022167Hz,0000000000c,0000000.000s, 032.2C,00002195
2015-05-06 21:13:56 r, 10.32m,0000006612Hz,0000000000c,0000000.000s, 032.2C,00002195
2015-05-06 21:23:56 r, 12.65m,0000000779Hz,0000000000c,0000000.000s, 032.2C,00002195
2015-05-06 21:33:56 r, 14.27m,0000000174Hz,0000000000c,0000000.000s, 032.2C,00002195
2015-05-06 21:43:56 r, 15.36m,0000000062Hz,0000007292c,0000000.016s, 031.9C,00002195
2015-05-06 21:53:56 r, 15.71m,0000000046Hz,0000009946c,0000000.022s, 031.5C,00002195
2015-05-06 22:03:56 r, 15.85m,0000000040Hz,0000011317c,0000000.025s, 031.5C,00002195
2015-05-06 22:13:56 r, 15.86m,0000000040Hz,0000011472c,0000000.025s, 031.2C,00002195
2015-05-06 22:23:56 r, 15.85m,0000000040Hz,0000011425c,0000000.025s, 031.2C,00002195
2015-05-06 22:33:56 r, 15.94m,0000000037Hz,0000012435c,0000000.027s, 031.2C,00002195
2015-05-06 22:43:56 r, 15.91m,0000000038Hz,0000012068c,0000000.026s, 030.9C,00002195
2015-05-06 22:53:56 r, 16.04m,0000000034Hz,0000013509c,0000000.029s, 030.9C,00002195
2015-05-06 23:03:56 r, 15.88m,0000000040Hz,0000011649c,0000000.025s, 030.9C,00002195
2015-05-06 23:13:56 r, 15.73m,0000000045Hz,0000010209c,0000000.022s, 030.9C,00002195
2015-05-06 23:23:56 r, 15.66m,0000000048Hz,0000009569c,0000000.021s, 030.9C,00002195
2015-05-06 23:33:56 r, 15.57m,0000000052Hz,0000008861c,0000000.019s, 030.9C,00002195
2015-05-06 23:43:56 r, 15.48m,0000000056Hz,0000008122c,0000000.018s, 030.9C,00002195
2015-05-06 23:53:56 r, 15.27m,0000000069Hz,0000006668c,0000000.014s, 030.6C,00002195
